Meteo Giornale » Osservazioni meteo Polonia » Warszawa-Okecie
ore: 16:30 - Osservazioni Meteo Warszawa-Okecie
Lat. 52° 10' N Lon. 20° 58' E Alt. 106 metri s.l.m.
21 °C
Molto Nuvoloso
Temp. 24 Ore
16 °C
21 °C
Ovest
31.5 Km/h
Dew point 13 °C
Umidità 60 %
Visibilità 10 Km
Il sole sorge alle ore 05:47
Il sole tramonta alle ore 19:24
| Data e Ora | Cielo e Fenomeni | T °C | DP °C | Um. % | Pres. hPa | Vis. km | Vento km/h | |
|---|---|---|---|---|---|---|---|---|
| Oggi h: 16:30 | Molto Nuvoloso | 21 | 13 | 60 | 1016 | 10 | O 31.5 | |
| Oggi h: 16:00 | Nuvoloso | 20 | 12 | 59 | 1015 | 10 | O 27.8 | |
| Oggi h: 15:30 | Nuvoloso | 20 | 13 | 64 | 1015 | 10 | O/SO 25.9 | |
| Oggi h: 15:00 | Poco Nuvoloso | 19 | 13 | 68 | 1015 | 10 | O 27.8 | |
| Oggi h: 14:30 | Poco Nuvoloso | 19 | 13 | 68 | 1015 | 10 | O 27.8 | |
| Oggi h: 14:00 | Nuvoloso | 20 | 13 | 64 | 1015 | 10 | O 31.5 | |
| Oggi h: 13:30 | Poco Nuvoloso | 19 | 13 | 68 | 1015 | 10 | O/SO 22.2 | |
| Oggi h: 13:00 | Poco Nuvoloso | 19 | 13 | 68 | 1015 | 10 | O/SO 22.2 | |
| Oggi h: 12:30 | Nuvoloso | 19 | 13 | 68 | 1015 | 10 | O/SO 22.2 | |
| Oggi h: 12:00 | Nuvoloso | 20 | 14 | 68 | 1015 | 10 | O 24 | |
| Oggi h: 11:30 | Nuvoloso | 21 | 13 | 60 | 1015 | 10 | O 24 | |
| Oggi h: 11:00 | Nuvoloso | 20 | 14 | 68 | 1014 | 10 | O/SO 27.8 | |
| Oggi h: 10:30 | Nuvoloso | 19 | 13 | 68 | 1014 | 10 | O/SO 25.9 | |
| Oggi h: 10:00 | Poco Nuvoloso | 19 | 14 | 72 | 1014 | 10 | O 25.9 | |
| Oggi h: 09:30 | Sereno | 19 | 14 | 72 | 1014 | 10 | O 25.9 | |
| Oggi h: 09:00 | Sereno | 19 | 14 | 72 | 1014 | 10 | O 20.3 | |
| Oggi h: 08:30 | Sereno | 18 | 14 | 77 | 1014 | 10 | O 20.3 | |
| Oggi h: 08:00 | Sereno | 17 | 14 | 82 | 1014 | 10 | O 20.3 | |
| Oggi h: 07:30 | Sereno | 17 | 15 | 88 | 1014 | 10 | O/SO 18.5 | |
| Oggi h: 07:00 | Sereno | 16 | 15 | 93 | 1013 | 10 | O/SO 14.8 | |
| Oggi h: 06:30 | Sereno | 16 | 15 | 93 | 1013 | 10 | O/SO 13 | |
| Oggi h: 06:00 | Sereno | 17 | 15 | 88 | 1013 | 10 | O/SO 13 | |
| Oggi h: 05:30 | Sereno | 17 | 15 | 88 | 1013 | 10 | N 5.5 | |
| Oggi h: 05:00 | Sereno | 17 | 16 | 93 | 1012 | 10 | S/SO 7.4 | |
| Oggi h: 04:30 | Sereno | 17 | 16 | 93 | 1013 | 10 | O/SO 13 | |
| Oggi h: 04:00 | Sereno | 17 | 16 | 93 | 1013 | 10 | SO 7.4 | |
| Oggi h: 03:30 | Sereno | 16 | 16 | 100 | 1013 | 10 | N 5.5 | |
| Oggi h: 03:00 | Nebbia | 16 | 16 | 100 | 1013 | 0.55 | N 5.5 | |
| Oggi h: 02:30 | Banco di nebbia | 16 | 16 | 100 | 1013 | 0.6 | N 3.7 | |
| Oggi h: 02:00 | Nebbia | 16 | 16 | 100 | 1013 | 2 | N 5.5 | |
| Oggi h: 01:30 | Banco di nebbia Foschia | 17 | 17 | 100 | 1013 | 0.7 | N 3.7 | |
| Oggi h: 01:00 | Sereno | 17 | 17 | 100 | 1014 | 10 | N 5.5 | |
| Oggi h: 00:30 | Sereno | 17 | 17 | 100 | 1013 | 10 | N 5.5 | |
| Oggi h: 00:00 | Poco Nuvoloso | 18 | 17 | 93 | 1013 | 10 | S/SO 7.4 | |
| Ieri h: 23:30 | Poco Nuvoloso | 18 | 17 | 93 | 1014 | 10 | S 9.3 | |
| Ieri h: 23:00 | Nuvoloso | 18 | 17 | 93 | 1014 | 10 | S 9.3 | |
| Ieri h: 22:30 | Poco Nuvoloso | 18 | 18 | 100 | 1014 | 10 | S/SE 13 | |
| Ieri h: 22:00 | Nuvoloso | 18 | 18 | 100 | 1014 | 10 | S/SE 13 | |
| Ieri h: 21:30 | Sereno | 17 | 17 | 100 | 1014 | 10 | S/SE 11.1 | |
| Ieri h: 21:00 | Sereno | 18 | 17 | 93 | 1014 | 10 | S 7.4 | |
| Ieri h: 20:30 | Sereno | 18 | 17 | 93 | 1014 | 10 | S 7.4 | |
| Ieri h: 20:00 | Sereno | 18 | 18 | 100 | 1013 | 10 | S 7.4 | |
| Ieri h: 19:30 | Sereno | 19 | 18 | 93 | 1013 | 10 | S 7.4 | |
| Ieri h: 19:00 | Sereno | 19 | 18 | 93 | 1013 | 10 | S 7.4 | |
| Ieri h: 18:30 | Sereno | 19 | 18 | 93 | 1013 | 10 | S 7.4 | |
| Ieri h: 18:00 | Sereno | 19 | 18 | 93 | 1013 | 10 | N 5.5 | |



